User: anonymous   Login
Location: Mercogliano
(40.9167°N, 14.7333°E)
Time: 14:15:54
(UTC+00:00)
Language:

CZ-2C R/B - Orbit

View from above orbital plane
View from above orbital plane
View from above satellite
View from above satellite

Ground track
Ground track

The orbit data is extracted from the following two-line orbital elements,

1 31114U 07010B   20333.56068917 +.00000041 +00000-0 +37657-4 0  9998
2 31114 098.2409 175.2703 0060287 147.8204 212.6676 14.19338381706282
Epoch (UTC): 28 November 2020 13:27:23
Eccentricity: 0.0060287
inclination: 98.2409°
perigee height: 784 km
apogee height: 871 km
right ascension of ascending node: 175.2703°
argument of perigee: 147.8204°
revolutions per day: 14.19338381
mean anomaly at epoch: 212.6676°
orbit number at epoch: 70628

The dashed part of the orbit path shows where the satellite is in the earth's shadow,  

DLR